Flag for Palestinian Territories Weather past 2 weeks in Bethlehem, West Bank, Palestinian Territories

79 °F

Partly sunny.

Feels Like: 81 °F
Forecast: 59 / 69 °F
Wind: 16 mph from Southwest

Location: Ben Gurion International Airport

Current Time: Oct 7, 2015 at 2:13:02 PM

Latest Report: Oct 7, 2015 at 1:50 PM

Visibility: N/A

Pressure: 29.80 "Hg (27.34 "Hg at 753m altitude)

Humidity: 70%

Dew point: 68 °F

Location of BethlehemLocation

Historic Weather in Bethlehem — Graph


Bethlehem temperature yesterday

Maximum temperature yesterday: 84 °F (at 12:50 PM)
Minimum temperature yesterday: 73 °F (at 3:20 AM)
Average temperature yesterday: 78 °F

Past Weeks' High & Low Weather Summary

High99 °F (Sep 23, 11:50 AM)94% (Oct 7, 6:50 AM)30.12 "Hg (Oct 7, 6:50 AM)
Low68 °F (Oct 7, 2:50 AM)18% (Sep 23, 11:50 AM)29.74 "Hg (Oct 7, 1:50 AM)
Average81 °F63%29.94 "Hg
* Reported Sep 22 12:20 PM — Oct 7 12:50 PM, Bethlehem, Weather by CustomWeather, © 2015

Note: Actual official high and low records may vary slightly from our data, if they occured in-between our weather recording intervals... More about our weather records


Bethlehem weather history for previous 24 hours

Time TempWeatherWind HumidityBarometerVisibility
12:50 PM
Wed, Oct 7
81 °FScattered clouds.10 mph66%29.80 "HgN/A
12:20 PM81 °FPassing clouds.14 mph66%29.80 "HgN/A
11:50 AM79 °FScattered clouds.13 mph70%29.80 "HgN/A
11:20 AM77 °FPassing clouds.13 mph74%29.80 "HgN/A
10:50 AM75 °FPassing clouds.14 mph78%29.80 "HgN/A
10:20 AM73 °FPassing clouds.13 mph83%29.80 "HgN/A
9:50 AM72 °FScattered clouds.12 mph88%29.80 "HgN/A
9:20 AM70 °FLight rain. Scattered clouds.13 mph94%29.80 "HgN/A
8:50 AM70 °FLight rain. Scattered clouds.14 mph88%29.80 "HgN/A
8:20 AM70 °FPassing clouds.13 mph88%29.77 "HgN/A
7:50 AM68 °FPassing clouds.12 mph94%29.77 "HgN/A
7:20 AM70 °FPassing clouds.13 mph88%29.77 "HgN/A
6:50 AM68 °FPassing clouds.10 mph94%29.74 "HgN/A
6:20 AM68 °FPassing clouds.13 mph88%29.74 "HgN/A
5:50 AM70 °FLight rain. Passing clouds.13 mph88%29.74 "HgN/A
5:20 AM70 °FRain. Passing clouds.9 mph88%29.74 "HgN/A
4:50 AM70 °FPassing clouds.8 mph88%29.74 "HgN/A
4:20 AM70 °FThundershowers. Overcast.7 mph88%29.74 "HgN/A
3:50 AM70 °FLight rain. Partly cloudy.8 mph88%29.74 "HgN/A
3:20 AM68 °FPassing clouds.9 mph88%29.74 "HgN/A
2:50 AM68 °FRain. Passing clouds.9 mph88%29.77 "Hg5 mi
2:20 AM73 °FPassing clouds.7 mph65%29.74 "HgN/A
1:50 AM73 °FPassing clouds.9 mph65%29.74 "HgN/A
12:50 AM73 °FPassing clouds.7 mph69%29.77 "HgN/A
12:20 AM73 °FPassing clouds.6 mph69%29.80 "HgN/A
11:50 PM
Tue, Oct 6
73 °FPassing clouds.7 mph69%29.80 "HgN/A
11:20 PM75 °FPassing clouds.8 mph65%29.80 "HgN/A
10:50 PM75 °FPassing clouds.8 mph65%29.80 "HgN/A
10:20 PM75 °FPassing clouds.8 mph65%29.80 "HgN/A
9:50 PM77 °FRain. Passing clouds.8 mph61%29.80 "HgN/A
9:20 PM77 °FPassing clouds.6 mph61%29.80 "HgN/A
8:50 PM77 °FPassing clouds.3 mph61%29.80 "HgN/A
8:20 PM77 °FPassing clouds.3 mph57%29.80 "HgN/A
7:50 PM77 °FClear.5 mph57%29.80 "Hg10 mi
7:20 PM79 °FPassing clouds.7 mph54%29.80 "HgN/A
6:50 PM79 °FPassing clouds.9 mph58%29.77 "HgN/A
6:20 PM79 °FPassing clouds.12 mph58%29.77 "HgN/A
5:50 PM81 °FScattered clouds.14 mph54%29.77 "HgN/A
5:20 PM81 °FScattered clouds.15 mph58%29.77 "HgN/A
4:50 PM82 °FScattered clouds.16 mph55%29.77 "HgN/A
4:20 PM82 °FScattered clouds.14 mph51%29.77 "HgN/A
3:50 PM84 °FScattered clouds.14 mph51%29.77 "HgN/A
3:20 PM84 °FScattered clouds.13 mph48%29.77 "HgN/A
2:50 PM84 °FScattered clouds.15 mph48%29.77 "HgN/A
2:20 PM84 °FPassing clouds.13 mph48%29.77 "HgN/A
Weather by CustomWeather, © 2015

See weather overviewHow to use our weather pages